Regional Weather Roundup
Issued by NWS

Home | Current Version | Previous Version | Text Only | Print | Product List | Glossary On
Versions: 1 2 3 4 5 6 7 8 9 10 11 12 13 14 15 16 17 18 19 20 21 22 23 24 25 26 27 28 29 30 31 32 33 34 35 36 37 38 39 40 41 42 43 44 45 46 47 48 49 50
000
ASUS43 KMPX 181810
RWRMN
WEATHER ROUNDUP FOR MINNESOTA
NATIONAL WEATHER SERVICE TWIN CITIES/CHANHASSEN MN
1200 PM CST THU DEC 18 2014


NOTE: "FAIR" INDICATES FEW OR NO CLOUDS BELOW 12,000 FEET WITH NO
SIGNIFICANT WEATHER AND/OR OBSTRUCTIONS TO VISIBILITY. N/A MEANS
CURRENT SKY AND/OR WEATHER CONDITIONS ARE NOT AVAILABLE.

MNZ060>063-068>070-181900-
   Twin Cities Metro

CITY           SKY/WX    TMP DP  RH WIND       PRES   REMARKS
TWIN CITIES    LGT SNOW  19  16  88 CALM      30.30F FOG
6HR MIN TEMP:  13; 6HR MAX TEMP:  19; 6HR PCP:  0.01;

ST PAUL        CLOUDY    21  17  84 S6        30.32F FOG     WCI  13
CRYSTAL        LGT SNOW  22  16  78 S5        30.28F WCI  16
BLAINE         LGT SNOW  23  19  86 E3        30.29
LAKEVILLE      CLOUDY    19  16  86 S3        30.28F
EDEN PRAIRIE   CLOUDY    20  16  84 CALM      30.28F
6HR MIN TEMP:   8; 6HR MAX TEMP:  20;

SOUTH ST PAUL  LGT SNOW  22  17  82 CALM      30.30F
LAKE ELMO      LGT SNOW  23  19  86 SW7       30.30F WCI  15
$$
MNZ001>005-007-008-013>017-022>024-027-028-181900-
   Northwest Minnesota

CITY           SKY/WX    TMP DP  RH WIND       PRES   REMARKS
BEMIDJI        FLURRIES  16  12  86 SE12G17   30.24S WCI   3
HALLOCK        MOSUNNY   18  12  79 S13       30.22F WCI   4
ROSEAU         FAIR      19  14  79 S7        30.23F WCI  10
WARROAD        SUNNY     18  12  79 CALM      30.24S
THIEF RVR FALL MOSUNNY   18  16  93 S13       30.23S WCI   4
CROOKSTON      PTSUNNY   18  14  86 S13       30.25F WCI   4
FOSSTON        SUNNY     18  12  79 S9        30.23F WCI   6
DETROIT LAKES  PTSUNNY   18  14  86 S9        30.23F WCI   6
MOORHEAD       PTSUNNY   18  16  93 S10       30.25F WCI   6
PARK RAPIDS    CLOUDY    17  12  80 S10       30.23F HAZE    WCI   5
MAHNOMEN       FAIR      17  12  79 S13       30.23F WCI   4
$$
MNZ006-009>011-018-025>026-181900-
   North Central Minnesota

CITY           SKY/WX    TMP DP  RH WIND       PRES   REMARKS
BAUDETTE       SUNNY     18  12  77 S5        30.23F WCI  11
FLAG ISLAND    SUNNY     10   7  85 S9        30.24F WCI  -2
INTL FALLS     LGT SNOW  18  13  80 SW7       30.27F WCI   9
6HR MIN TEMP:  -2; 6HR MAX TEMP:  18; 6HR PCP: TRACE;

WASKISH        CLOUDY    18  14  86 SE8       30.26S WCI   7
BIG FORK       FLURRIES  19  16  86 CALM      30.26
LONGVILLE      LGT SNOW  19  16  86 SE7       30.25F WCI  10
GRAND RAPIDS   CLOUDY    18  16  93 CALM      30.25F
CRANE LAKE     CLOUDY    16  14  93 CALM      30.29F
ORR            CLOUDY    18  12  79 CALM      30.24S
COOK           CLOUDY    18  16  93 CALM      30.26F
WALKER         LGT SNOW  16  12  86 S6        30.25S WCI   7
$$
MNZ012-019>021-037-181900-
   Northeast Minnesota

CITY           SKY/WX    TMP DP  RH WIND       PRES   REMARKS
DULUTH         CLOUDY    25  19  78 SE8       30.23F WCI  16
6HR MIN TEMP:  19; 6HR MAX TEMP:  25; 6HR PCP: TRACE;

ELY            CLOUDY    19  18  93 CALM      30.26F
HIBBING        CLOUDY    20  15  81 CALM      30.25F
EVELETH        PTSUNNY   23  19  86 CALM      30.25F
DULUTH HARBOR  CLOUDY    27  21  80 CALM      30.30F
TWO HARBORS    CLOUDY    30  23  74 E6        30.25F WCI  24
SILVER BAY     CLOUDY    27  21  80 NE5       30.26F WCI  21
GRAND MARAIS     N/A     25  15  66 CALM      30.33F
G MARAIS ARPRT MOSUNNY   19   9  63 CALM      30.25F
$$
MNZ029>031-032-039>041-046>048-054>057-064-181900-
   West Central Minnesota

CITY           SKY/WX    TMP DP  RH WIND       PRES   REMARKS
FERGUS FALLS   CLOUDY    16  10  79 SE14      30.27F WCI   1
WHEATON        CLOUDY    16  12  86 SE9       30.25F WCI   4
MORRIS         CLOUDY    18  16  93 SE8       30.24S WCI   7
ALEXANDRIA     PTSUNNY   18  12  77 MISG      30.24F
ELBOW LAKE     CLOUDY    15  13  90 SE9       30.23F WCI   3
WADENA         PTSUNNY   16  10  79 NW8       30.23F WCI   5
GLENWOOD       MOSUNNY   18  14  86 SE8       30.24F WCI   7
APPLETON       CLOUDY    18  16  93 SE3       30.25F
BENSON         CLOUDY    18  14  86 S9        30.25F WCI   6
ORTONVILLE     CLOUDY    16  12  86 SE9       30.23S WCI   4
MADISON        MOSUNNY   19  18  93 SE5       30.24F WCI  13
WILLMAR        FAIR      18  12  79 SE8       30.27S WCI   7
$$
MNZ033>034-036-042>043-049>051-058-059-181900-
   Central Minnesota

CITY           SKY/WX    TMP DP  RH WIND       PRES   REMARKS
ST CLOUD       LGT SNOW  20  15  81 SE3       30.28F VSB 3/4
6HR MIN TEMP:   9; 6HR MAX TEMP:  20; 6HR PCP:  0.01;

SAUK CENTRE    FAIR      17  12  84 S8        30.26F WCI   6
PAYNESVILLE    MOSUNNY   15  10  82 E7        30.26F WCI   5
AITKIN         MIX PCPN  23  18  80 S3        30.24F
PINE RIVER     FLURRIES  18  16  93 SE8       30.28F WCI   7
BRAINERD       CLOUDY    19  15  84 S8        30.26F WCI   9
STAPLES        FLURRIES  18  12  79 S9        30.24F WCI   6
LONG PRAIRIE   PTSUNNY   18  12  79 NW6       30.25F WCI   9
LITTLE FALLS   CLOUDY    19  14  79 CALM      30.27F
LITCHFIELD     CLOUDY    19  14  79 CALM      30.28F
BUFFALO        MOSUNNY   20  15  78 S3        30.30F
MAPLE LAKE     MOSUNNY   22  18  85 SE5       30.29F WCI  15
$$
MNZ037-044-045-052-053-181900-
   East Central Minnesota

CITY           SKY/WX    TMP DP  RH WIND       PRES   REMARKS
PRINCETON      FLURRIES  21  18  86 CALM      30.28F
MORA           CLOUDY    21  16  79 SE3       30.29F
CAMBRIDGE      FLURRIES  21  14  73 SE6       30.27F WCI  14
RUSH CITY      CLOUDY    21  18  86 S3        30.29S
MOOSE LAKE     CLOUDY    23  19  86 CALM      30.25F
HINCKLEY       CLOUDY    23  19  86 E5        30.28S WCI  17
CLOQUET        CLOUDY    25  19  80 S3        30.25F
MCGREGOR       CLOUDY    21  19  93 CALM      30.26F
$$
MNZ071>073-080-081-089-090-097-098-181900-
   Southwest Minnesota

CITY           SKY/WX    TMP DP  RH WIND       PRES   REMARKS
MONTEVIDEO     CLOUDY    18  18 100 S5        30.26F WCI  11
GRANITE FALLS  CLOUDY    17  15  90 SE7       30.27F WCI   8
CANBY          CLOUDY    19  17  91 SE5       30.24F WCI  12
MARSHALL       CLOUDY    18  14  86 SE3       30.23F
REDWOOD FALLS  PTSUNNY   18  14  84 SE8       30.26F WCI   8
OLIVIA         PTSUNNY   19  16  86 SE7       30.26F FOG     WCI  10
PIPESTONE      CLOUDY    21  18  86 CALM      30.19F
WINDOM         PTSUNNY   21  18  86 CALM      30.22F
WORTHINGTON    CLOUDY    21  18  86 S7        30.21F WCI  13
JACKSON        CLOUDY    21  19  93 CALM      30.23F
TRACY          CLOUDY    22  19  87 S3        30.22F
SLAYTON        CLOUDY    21  19  93 CALM      30.21F
$$
MNZ065>067-074>077-082>085-091>093-181900-
   South Central Minnesota

CITY           SKY/WX    TMP DP  RH WIND       PRES   REMARKS
MANKATO        CLOUDY    19  10  68 CALM      30.28F
NEW ULM        PTSUNNY   19  16  86 CALM      30.27F
ST JAMES       CLOUDY    21  18  86 CALM      30.27F
FAIRMONT       CLOUDY    19  14  79 SE5       30.25F WCI  13
GLENCOE        MOSUNNY   19  16  86 CALM      30.28F
FARIBAULT      LGT SNOW  19  14  79 SE6       30.28F WCI  11
OWATONNA       CLOUDY    18  12  79 CALM      30.26F
WASECA         LGT SNOW  19  16  86 CALM      30.28F
ALBERT LEA     MOSUNNY   21  16  79 CALM      30.25F
$$
MNZ078>079-086>088-094>096-181900-
   Southeast Minnesota

CITY           SKY/WX    TMP DP  RH WIND       PRES   REMARKS
ROCHESTER      CLOUDY    19  14  81 S5        30.26F WCI  12
6HR MIN TEMP:  12; 6HR MAX TEMP:  19; 6HR PCP: TRACE;

RED WING       LGT SNOW  23  18  80 CALM      30.29F
STANTON        CLOUDY    22  15  75 S5        30.27F WCI  16
DODGE CENTER   CLOUDY    19  16  86 S5        30.25F WCI  13
WINONA         CLOUDY    25  19  80 CALM      30.30F
AUSTIN         LGT SNOW  18  16  93 CALM      30.25F
PRESTON        CLOUDY    20  15  83 CALM      30.26F
$$
ABBREVIATIONS USED IN REMARKS
   TC - TEMPERATURES IN CELSIUS
  WCI - WIND CHILL INDEX
   HX - HEAT INDEX
  VSB - VISIBILITY
$$


USA.gov is the U.S. government's official web portal to all federal, state and local government web resources and services.